Location: Bothwell
(42.3833°S, 147.0000°E)
Time: 14:58:01
(UTC+11:00)

FO-29 - Pass Details

Date: 15 June 2023
Orbit: 799 x 1321 km, 98.5° (Epoch: 01 October)

Event Time Altitude Azimuth Distance (km) Brightness Sun altitude
Rises 17:49:33 0° 174° (S) 4,243 12.6 -11.5°
Reaches altitude 10° 17:52:38 10° 183° (S) 3,210 12.0 -12.0°
Maximum altitude 17:58:55 32° 241° (WSW) 1,866 11.4 -13.1°
Drops below altitude 10° 18:04:36 10° 301° (WNW) 2,876 13.3 -14.1°
Sets 18:07:14 0° 311° (NW) 3,743 13.9 -14.6°
